Home > Weather > São Luis > Past weeks

Flag for Brazil Weather for the Past 2 Weeks in São Luis, Maranhão, Brazil

Now
82 °F

Passing clouds.


Feels Like: 87 °F
Forecast: 78 / 87 °F
Wind: 6 mph from Northeast

Location: Sao Luiz Aeroporto

Current Time: May 1, 2016 at 12:00:32 AM

Latest Report: Apr 30, 2016 at 11:00 PM


Visibility: N/A

Pressure: 29.89 "Hg

Humidity: 70%

Dew Point: 72 °F

Location of São LuisLocation

Historic Weather in São Luis — Graph

°F

São Luis Temperature Yesterday

Maximum temperature yesterday: 90 °F (at 1:00 PM)
Minimum temperature yesterday: 79 °F (at 2:00 AM)
Average temperature yesterday: 84 °F

High & Low Weather Summary for the Past Weeks

 TemperatureHumidityPressure
High93 °F (Apr 20, 2:00 PM)89% (Apr 16, 12:00 AM)29.92 "Hg (Apr 16, 12:00 AM)
Low75 °F (Apr 26, 5:00 PM)46% (Apr 29, 2:00 PM)29.74 "Hg (Apr 20, 3:00 PM)
Average84 °F74%29.83 "Hg
* Reported Apr 15 10:00 PM — Apr 30 10:00 PM, São Luis, Weather by CustomWeather, © 2016

Note: Actual official high and low records may vary slightly from our data, if they occured in-between our weather recording intervals... More about our weather records

Advertising

São Luis Weather History for the Previous 24 Hours

Scroll right to see more
 ConditionsComfort  
Time TempWeatherWind HumidityBarometerVisibility
10:00 PM
Sat, Apr 30
82 °FPassing clouds.12 mph70%29.89 "HgN/A
9:00 PM82 °FPassing clouds.6 mph70%29.89 "HgN/A
8:00 PM84 °FPartly cloudy.9 mph62%29.86 "HgN/A
7:00 PM84 °FPassing clouds.8 mph66%29.83 "HgN/A
6:00 PM84 °FPartly cloudy.12 mph66%29.80 "HgN/A
5:00 PM84 °FPartly sunny.14 mph70%29.77 "HgN/A
4:00 PM86 °FPartly sunny.12 mph66%29.77 "HgN/A
3:00 PM88 °FPartly sunny.14 mph66%29.77 "HgN/A
2:00 PM90 °FPartly sunny.14 mph59%29.77 "HgN/A
1:00 PM90 °FPartly sunny.12 mph55%29.83 "HgN/A
12:00 PM88 °FPartly sunny.14 mph62%29.86 "HgN/A
11:00 AM88 °FPartly sunny.8 mph59%29.89 "HgN/A
10:00 AM86 °FPartly sunny.8 mph66%29.89 "HgN/A
9:00 AM86 °FPartly sunny.7 mph70%29.89 "HgN/A
8:00 AM82 °FScattered clouds.3 mph79%29.89 "HgN/A
7:00 AM81 °FScattered clouds.3 mph84%29.86 "HgN/A
6:00 AM81 °FPassing clouds.2 mph79%29.83 "HgN/A
5:00 AM81 °FPassing clouds.3 mph79%29.83 "HgN/A
4:00 AM81 °FPassing clouds.6 mph79%29.83 "HgN/A
3:00 AM81 °FPassing clouds.5 mph84%29.83 "HgN/A
2:00 AM79 °FPassing clouds.7 mph89%29.83 "HgN/A
1:00 AM81 °FPassing clouds.6 mph84%29.83 "HgN/A
12:00 AM82 °FPassing clouds.6 mph79%29.86 "HgN/A
Weather by CustomWeather, © 2016

See weather overviewHow to use our weather pages